Weather History for KMYP - March, 2014

Change the Weather History Date:

Friday, March 28, 2014

  Actual Average (KGUC) Record (KGUC)
Temperature  
Mean Temperature 16 °F -  
Max Temperature 19 °F 47 °F 64 °F (2015)
Min Temperature 12 °F 20 °F 12 °F (2008)
Degree Days  
Heating Degree Days 50    
Moisture  
Dew Point 11 °F    
Average Humidity 81    
Maximum Humidity 93    
Minimum Humidity 53    
Precipitation  
Precipitation 0.00 in - - ()
Sea Level Pressure  
Sea Level Pressure 30.17 in    
Wind  
Wind Speed 35 mph (West)    
Max Wind Speed 52 mph    
Max Gust Speed 60 mph    
Visibility 5 miles    
Events Snow    
Averages and records for this station are not official NWS values.
T = Trace of Precipitation, MM = Missing Value Source: NWS Daily Summary

Daily Weather History Graph

Daily Weather History Graph

Search for Another Location

Airport or City:

Trip Planner

Search our weather history database for the weather conditions in past years. The results will help you decide how hot, cold, wet, or windy it might be!

Date:

Astronomy

Mar. 28, 2014 Rise Set
Actual Time 6:56 AM MDT 7:24 PM MDT
Civil Twilight 6:29 AM MDT 7:51 PM MDT
Nautical Twilight 5:58 AM MDT 8:22 PM MDT
Astronomical Twilight 5:26 AM MDT 8:54 PM MDT
Moon 5:27 AM MDT (3/28) 5:25 PM MDT (3/28)
Length of Visible Light 13h 21m
Length of Day
12h 28m
Waning Crescent, 6% of the Moon is Illuminated
Mar 28
Waning Crescent
Mar 30
New
Apr 7
First Quarter
Apr 15
Full
Apr 22
Last Quarter

Hourly Weather History & Observations

Time (MDT) Temp. Windchill Dew Point Humidity Pressure Visibility Wind Dir Wind Speed Gust Speed Precip Events Conditions
12:14 AM 17.6 °F - 15.8 °F 93% 30.01 in 0.2 mi North - - N/A Snow Light Snow
12:32 AM 17.6 °F - 15.8 °F 93% 30.01 in 0.2 mi North - - N/A Snow Light Snow
12:54 AM 17.6 °F -0.6 °F 15.8 °F 93% 30.00 in 0.2 mi WSW 25.3 mph - N/A Snow Heavy Snow
1:13 AM 17.6 °F - 15.8 °F 93% 30.01 in 0.2 mi North - - N/A Snow Heavy Snow
1:33 AM 17.6 °F - 15.8 °F 93% 29.99 in 0.2 mi North - - N/A Snow Heavy Snow
1:49 AM 17.6 °F -1.6 °F 14.0 °F 86% 30.01 in 0.2 mi WSW 28.8 mph - N/A Snow Light Snow
2:12 AM 17.6 °F -0.6 °F 14.0 °F 86% 30.01 in 0.2 mi WSW 25.3 mph - N/A Snow Light Snow
2:34 AM 17.6 °F - 14.0 °F 86% 30.01 in 0.2 mi North - - N/A Snow Heavy Snow
2:54 AM 17.6 °F - 14.0 °F 86% 30.01 in - North - - N/A   Overcast
3:15 AM 17.6 °F - 14.0 °F 86% 30.01 in - North - - N/A   Overcast
3:25 AM 17.6 °F - 14.0 °F 86% 30.01 in - North - - N/A   Overcast
3:55 AM 17.6 °F - 14.0 °F 86% 29.99 in - North - - N/A   Overcast
4:15 AM 17.6 °F - 14.0 °F 86% 30.01 in - North - - N/A   Overcast
4:33 AM 17.6 °F - 14.0 °F 86% 30.01 in - North - - N/A   Overcast
4:50 AM 15.8 °F - 14.0 °F 93% 30.01 in - North - - N/A   Overcast
5:12 AM 15.8 °F - 12.2 °F 86% 30.02 in - North - - N/A   Overcast
5:29 AM 15.8 °F - 12.2 °F 86% 30.03 in - North - - N/A   Overcast
5:53 AM 14.0 °F - 12.2 °F 93% 30.04 in - North - - N/A   Overcast
6:15 AM 14.0 °F - 10.4 °F 86% 30.05 in - North - - N/A   Overcast
6:21 AM 12.2 °F - 10.4 °F 92% 30.04 in - North - - N/A   Overcast
6:55 AM 12.2 °F - 10.4 °F 92% 30.02 in - North - - N/A   Unknown
7:15 AM 12.2 °F - 10.4 °F 92% 30.03 in - North - - N/A   Overcast
7:35 AM 12.2 °F - 10.4 °F 92% 30.04 in - North - - N/A   Overcast
7:55 AM 12.2 °F - 10.4 °F 92% 30.04 in - North - - N/A   Overcast
8:15 AM 12.2 °F - 10.4 °F 92% 30.07 in - North - - N/A   Overcast
8:26 AM 12.2 °F - 10.4 °F 92% 30.08 in - North - - N/A   Overcast
8:53 AM 12.2 °F - 10.4 °F 92% 30.10 in - North - - N/A   Overcast
9:14 AM 12.2 °F - 10.4 °F 92% 30.10 in - North - - N/A   Overcast
9:27 AM 12.2 °F - 10.4 °F 92% 30.10 in - North - - N/A   Overcast
9:52 AM 14.0 °F - 10.4 °F 86% 30.13 in - North - - N/A   Overcast
10:15 AM 14.0 °F - 10.4 °F 86% 30.14 in - North - - N/A   Unknown
10:34 AM 12.2 °F - 10.4 °F 92% 30.15 in - North - - N/A   Unknown
10:52 AM 12.2 °F - 10.4 °F 92% 30.16 in - North - - N/A   Unknown
11:15 AM 14.0 °F -10.5 °F 10.4 °F 86% 30.15 in - WSW 46.0 mph 49.5 mph N/A   Unknown
11:34 AM 14.0 °F -9.6 °F 12.2 °F 93% 30.17 in - WSW 41.4 mph 50.6 mph N/A   Unknown
11:54 AM 14.0 °F -9.3 °F 12.2 °F 93% 30.17 in - WSW 40.3 mph 48.3 mph N/A   Unknown
12:13 PM 14.0 °F -10.0 °F 12.2 °F 93% 30.18 in - WSW 43.7 mph 48.3 mph N/A   Unknown
12:33 PM 14.0 °F -9.8 °F 12.2 °F 93% 30.18 in 1.2 mi WSW 42.6 mph 51.8 mph N/A Snow Light Snow
12:52 PM 15.8 °F -7.7 °F 12.2 °F 86% 30.18 in 0.8 mi West 44.9 mph 50.6 mph N/A Snow Light Snow
1:03 PM 15.8 °F -7.0 °F 12.2 °F 86% 30.19 in 0.8 mi West 41.4 mph 56.4 mph N/A Snow Light Snow
1:23 PM 15.8 °F -7.3 °F 12.2 °F 86% 30.18 in 0.8 mi West 42.6 mph 57.5 mph N/A Snow Light Snow
1:54 PM 15.8 °F -7.9 °F 14.0 °F 93% 30.19 in 0.8 mi WSW 46.0 mph 59.8 mph N/A Snow Light Snow
2:07 PM 15.8 °F -8.1 °F 12.2 °F 86% 30.19 in 1.0 mi West 47.2 mph 57.5 mph N/A Snow Light Snow
2:33 PM 15.8 °F -9.0 °F 14.0 °F 93% 30.20 in 1.0 mi West 51.8 mph 59.8 mph N/A Snow Light Snow
2:53 PM 15.8 °F -8.4 °F 14.0 °F 93% 30.20 in 1.0 mi West 48.3 mph 57.5 mph N/A Snow Light Snow
3:12 PM 17.6 °F -5.4 °F 14.0 °F 86% 30.21 in 1.5 mi West 46.0 mph 54.1 mph N/A Snow Light Snow
3:31 PM 17.6 °F -6.0 °F 14.0 °F 86% 30.20 in 2.5 mi West 49.5 mph 56.4 mph N/A   Clear
3:50 PM 17.6 °F -5.0 °F 14.0 °F 86% 30.21 in 3.0 mi West 43.7 mph 52.9 mph N/A   Clear
4:14 PM 17.6 °F -4.5 °F 14.0 °F 86% 30.23 in 3.0 mi West 41.4 mph 52.9 mph N/A Snow Light Snow
4:33 PM 17.6 °F -4.5 °F 14.0 °F 86% 30.23 in 3.0 mi West 41.4 mph 49.5 mph N/A   Clear
4:55 PM 17.6 °F -4.3 °F 14.0 °F 86% 30.24 in 3.0 mi West 40.3 mph 50.6 mph N/A Snow Light Snow
5:10 PM 17.6 °F -4.7 °F 14.0 °F 86% 30.25 in 2.5 mi West 42.6 mph 49.5 mph N/A Snow Light Snow
5:34 PM 19.4 °F -1.6 °F 12.2 °F 74% 30.25 in 5.0 mi West 39.1 mph 49.5 mph N/A   Haze
5:51 PM 19.4 °F -2.2 °F 10.4 °F 68% 30.26 in 3.0 mi West 42.6 mph 51.8 mph N/A Snow Light Snow
6:08 PM 19.4 °F - 8.6 °F 63% 30.28 in 7.0 mi North - - N/A   Clear
6:27 PM 19.4 °F -1.6 °F 8.6 °F 63% 30.28 in 7.0 mi West 39.1 mph 44.9 mph N/A   Clear
6:54 PM 19.4 °F 0.8 °F 8.6 °F 63% 30.30 in 10.0 mi West 28.8 mph - N/A   Clear
7:02 PM 19.4 °F - 8.6 °F 63% 30.31 in 10.0 mi North - - N/A   Clear
7:31 PM 17.6 °F - 6.8 °F 63% 30.32 in 10.0 mi North - - N/A   Clear
7:48 PM 17.6 °F - 6.8 °F 63% 30.32 in 10.0 mi North - - N/A   Clear
8:14 PM 17.6 °F - 6.8 °F 63% 30.35 in 10.0 mi North - - N/A   Clear
8:34 PM 17.6 °F -2.2 °F 6.8 °F 63% 30.34 in 10.0 mi West 31.1 mph 34.5 mph N/A   Clear
8:55 PM 17.6 °F -3.1 °F 6.8 °F 63% 30.34 in 10.0 mi West 34.5 mph - N/A   Clear
9:14 PM 17.6 °F - 6.8 °F 63% 30.35 in 10.0 mi North - - N/A   Clear
9:34 PM 15.8 °F 3.4 °F 5.0 °F 62% 30.38 in 10.0 mi West 10.4 mph 23.0 mph N/A   Clear
9:50 PM 15.8 °F - 5.0 °F 62% 30.37 in 10.0 mi North - - N/A   Clear
10:11 PM 17.6 °F 2.2 °F 5.0 °F 58% 30.38 in 10.0 mi West 17.3 mph - N/A   Clear
10:35 PM 17.6 °F 5.0 °F 3.2 °F 53% 30.40 in 10.0 mi WNW 11.5 mph 21.9 mph N/A   Clear
10:51 PM 17.6 °F 4.3 °F 3.2 °F 53% 30.40 in 10.0 mi West 12.7 mph 20.7 mph N/A   Clear
11:11 PM 17.6 °F 3.2 °F 3.2 °F 53% 30.40 in 10.0 mi West 15.0 mph - N/A   Clear
11:25 PM 17.6 °F 2.7 °F 3.2 °F 53% 30.40 in 10.0 mi West 16.1 mph - N/A   Clear
11:49 PM 17.6 °F 0.5 °F 3.2 °F 53% 30.39 in 10.0 mi West 21.9 mph - N/A   Clear